TimeMDT,TemperatureF,Dew PointF,Humidity,Sea Level PressureIn,VisibilityMPH,Wind Direction,Wind SpeedMPH,Gust SpeedMPH,PrecipitationIn,Events,Conditions,WindDirDegrees,DateUTC
12:53 AM,75.9,54.0,46,29.88,10.0,WNW,12.7,-,N/A,,Clear,300,2013-09-06 06:53:00
1:53 AM,72.0,55.0,55,29.88,10.0,SW,5.8,-,N/A,,Clear,220,2013-09-06 07:53:00
2:53 AM,69.1,55.0,61,29.91,10.0,ENE,5.8,-,N/A,,Clear,70,2013-09-06 08:53:00
3:53 AM,66.9,55.0,66,29.90,10.0,SW,8.1,-,0.00,Rain,Light Rain,220,2013-09-06 09:53:00
4:53 AM,66.9,55.0,66,29.93,10.0,NNW,15.0,23.0,0.00,Rain,Light Rain,340,2013-09-06 10:53:00
5:53 AM,69.1,57.0,65,29.95,10.0,NNW,11.5,-,0.00,,Clear,330,2013-09-06 11:53:00
6:53 AM,66.9,55.9,68,29.98,10.0,NW,4.6,-,N/A,,Clear,320,2013-09-06 12:53:00
7:53 AM,70.0,57.0,63,30.01,10.0,SSE,3.5,-,N/A,,Clear,150,2013-09-06 13:53:00
8:53 AM,75.0,57.0,53,30.02,10.0,Calm,Calm,-,N/A,,Clear,0,2013-09-06 14:53:00
9:53 AM,78.1,55.9,46,30.01,10.0,Calm,Calm,-,N/A,,Clear,0,2013-09-06 15:53:00
10:53 AM,82.0,55.9,41,29.99,10.0,Calm,Calm,-,N/A,,Clear,0,2013-09-06 16:53:00
11:53 AM,82.9,55.0,38,29.98,10.0,Calm,Calm,-,N/A,,Clear,0,2013-09-06 17:53:00
12:53 PM,86.0,55.0,35,29.95,10.0,SSE,5.8,-,N/A,,Clear,150,2013-09-06 18:53:00
1:53 PM,91.9,52.0,26,29.93,10.0,SE,9.2,-,N/A,,Clear,130,2013-09-06 19:53:00
2:53 PM,93.0,51.1,24,29.91,10.0,SE,11.5,-,N/A,,Clear,140,2013-09-06 20:53:00
3:53 PM,90.0,46.9,23,29.89,10.0,SSE,9.2,-,N/A,,Clear,150,2013-09-06 21:53:00
4:45 PM,80.6,55.4,42,30.04,10.0,SW,34.5,42.6,0.00,Rain-Thunderstorm,Light Thunderstorms and Rain,220,2013-09-06 22:45:00
4:53 PM,77.0,57.0,50,29.94,10.0,Variable,4.6,41.4,0.08,Rain-Thunderstorm,Thunderstorms and Rain,0,2013-09-06 22:53:00
5:25 PM,82.4,59.0,45,30.02,10.0,ENE,6.9,-,0.00,,Mostly Cloudy,70,2013-09-06 23:25:00
5:53 PM,81.0,57.9,45,29.89,10.0,East,4.6,-,0.00,,Scattered Clouds,80,2013-09-06 23:53:00
6:53 PM,78.1,64.0,62,29.89,10.0,SSW,4.6,-,N/A,,Clear,200,2013-09-07 00:53:00
7:53 PM,77.0,57.0,50,29.92,10.0,North,12.7,-,N/A,,Clear,360,2013-09-07 01:53:00
8:53 PM,73.0,55.0,53,29.95,10.0,NW,10.4,-,N/A,,Clear,310,2013-09-07 02:53:00
9:53 PM,70.0,55.0,59,29.96,10.0,WNW,6.9,-,N/A,,Clear,300,2013-09-07 03:53:00
10:53 PM,66.9,55.9,68,29.96,10.0,Calm,Calm,-,N/A,,Clear,0,2013-09-07 04:53:00
11:53 PM,64.0,57.0,78,29.97,10.0,Calm,Calm,-,N/A,,Clear,0,2013-09-07 05:53:00